Location: Pitton
(51.0667°N, 1.7000°W)
Time: 15:56:42
(UTC+00:00)

Cosmos 1934 Rocket - Pass Details

Date: 17 September 2019
Orbit: 938 x 999 km, 83.0° (Epoch: 22 October)

Event Time Altitude Azimuth Distance (km) Brightness Sun altitude
Rises 21:21:01 0° 351° (N) 3,621 7.8 -26.9°
Reaches altitude 10° 21:23:33 10° 355° (N) 2,677 6.9 -27.2°
Enters shadow 21:29:33 65° 73° (ENE) 1,047 3.9 -27.8°
